Location: Spring Creek
(38.2870°N, 100.2160°W)
Time: 03:48:49
(UTC+00:00)

Sich 1 - Pass Details

Date: 08 May 2021
Orbit: 595 x 624 km, 82.5° (Epoch: 22 June)

Event Time Altitude Azimuth Distance (km) Brightness Sun altitude
Rises 02:48:17 0° 3° (N) 2,861 6.9 -12.9°
Reaches altitude 10° 02:50:43 10° 14° (NNE) 1,958 5.9 -13.3°
Maximum altitude 02:54:34 31° 77° (ENE) 1,084 4.0 -13.9°
Enters shadow 02:56:17 23° 117° (ESE) 1,307 4.1 -14.2°
